Regional Weather Roundup
Issued by NWS

Home | Current Version | Previous Version | Text Only | Print | Product List | Glossary On
Versions: 1 2 3 4 5 6 7 8 9 10 11 12 13 14 15 16 17 18 19 20 21 22 23 24 25 26 27 28 29 30 31 32 33 34 35 36 37 38 39 40 41 42 43 44 45 46 47 48 49 50
000
ASCA42 TJSJ 240311
RWRPR
PUERTO RICO/U.S. VIRGIN ISLANDS HOURLY WEATHER ROUNDUP
NATIONAL WEATHER SERVICE SAN JUAN PR
1100 PM AST TUE SEP 23 2014

PRZ001-004-240400-
PUERTO RICO

CITY           SKY/WX    TMP DP  RH WIND       PRES   REMARKS
SAN JUAN LMM   PTCLDY    82  77  83 CALM      30.00R HX  91
PONCE          PTCLDY    79  73  83 NE6       29.95
CEIBA          PTCLDY    82  73  74 E5        30.01S
$$

PRZ006-007-240400-
U.S. VIRGIN ISLANDS

CITY           SKY/WX    TMP DP  RH WIND       PRES   REMARKS
CHRISTIANSTED  CLEAR     79  75  89 E3        29.99
$$

HOURLY WEATHER ROUNDUP FOR THE NEWS MEDIA

CITY           SKY/WX    TMP DP  RH WIND       PRES   REMARKS
MIAMI          MOCLDY    79  72  79 NE5       30.01S
ORLANDO        MOCLDY    74  72  93 N5        30.04R
NEW YORK       PTCLDY    61  52  72 SW5       30.41R
NEWARK         PTCLDY    60  52  74 S3        30.40R
CHICAGO        MOCLDY    61  49  64 S6        30.30R
HARTFORD       PTCLDY    49  47  93 CALM      30.41R
BOSTON         PTCLDY    62  48  60 NW5       30.41R
DALLAS         PTCLDY    75  48  38 E8        30.10R
PHILADELPHIA   PTCLDY    59  51  75 SE5       30.39R



USA.gov is the U.S. government's official web portal to all federal, state and local government web resources and services.